Time,TemperatureF,DewpointF,PressureIn,WindDirection,WindDirectionDegrees,WindSpeedMPH,WindSpeedGustMPH,Humidity,HourlyPrecipIn,Conditions,Clouds,dailyrainin,SoftwareType,DateUTC
2013-06-08 09:50:00,85.6,74.7,29.82,South,185,0.0,0.0,70,0.00,,CLR,0.00,VWS V14.00,2013-06-08 13:50:00,
2013-06-08 09:51:00,85.6,74.7,29.82,SE,127,0.0,0.0,70,0.00,,CLR,0.00,VWS V14.00,2013-06-08 13:51:00,
2013-06-08 09:56:00,85.8,74.9,29.82,South,169,2.2,3.1,70,0.00,,CLR,0.00,VWS V14.00,2013-06-08 13:56:00,
2013-06-08 10:01:00,85.8,74.9,29.82,SW,235,0.0,0.0,70,0.00,,SCT050,0.00,VWS V14.00,2013-06-08 14:01:00,
2013-06-08 10:06:00,86.0,75.1,29.82,SSW,201,0.0,3.6,70,0.00,,SCT050,0.00,VWS V14.00,2013-06-08 14:06:00,
2013-06-08 10:11:00,86.5,75.6,29.82,West,272,2.2,4.0,70,0.00,,SCT050,0.00,VWS V14.00,2013-06-08 14:11:00,
2013-06-08 10:17:00,86.5,70.0,29.82,SE,142,0.0,4.0,58,0.00,,SCT050,0.00,VWS V14.00,2013-06-08 14:17:00,
2013-06-08 10:22:00,86.5,70.0,29.82,SE,139,4.0,5.8,58,0.00,,SCT050,0.00,VWS V14.00,2013-06-08 14:22:00,
2013-06-08 10:27:00,86.7,70.2,29.82,ESE,121,0.0,5.8,58,0.00,,SCT050,0.00,VWS V14.00,2013-06-08 14:27:00,
2013-06-08 10:32:00,87.3,70.7,29.82,SSW,192,3.1,4.0,58,0.00,,SCT050,0.00,VWS V14.00,2013-06-08 14:32:00,
2013-06-08 10:37:00,87.4,70.9,29.82,South,186,0.0,4.9,58,0.00,,SCT050,0.00,VWS V14.00,2013-06-08 14:37:00,
2013-06-08 10:42:00,87.8,71.2,29.82,SE,129,0.0,5.4,58,0.00,,SCT050,0.00,VWS V14.00,2013-06-08 14:42:00,
2013-06-08 10:47:00,87.8,71.2,29.82,SW,229,3.6,5.4,58,0.00,,SCT050,0.00,VWS V14.00,2013-06-08 14:47:00,
2013-06-08 10:52:00,87.6,71.0,29.82,South,176,0.0,5.4,58,0.00,,SCT050,0.00,VWS V14.00,2013-06-08 14:52:00,
2013-06-08 10:57:00,88.5,71.9,29.82,SSE,168,0.0,5.4,58,0.00,,SCT050,0.00,VWS V14.00,2013-06-08 14:57:00,
2013-06-08 11:02:00,90.1,71.3,29.82,SW,232,0.0,4.0,54,0.00,,FEW015,0.00,VWS V14.00,2013-06-08 15:02:00,
2013-06-08 11:07:00,91.0,72.1,29.82,SW,232,3.6,5.8,54,0.00,,FEW015,0.00,VWS V14.00,2013-06-08 15:07:00,
2013-06-08 11:12:00,90.5,71.6,29.82,SSW,208,0.0,5.8,54,0.00,,FEW015,0.00,VWS V14.00,2013-06-08 15:12:00,
2013-06-08 11:18:00,89.4,72.7,29.85,SW,219,4.9,5.8,58,0.00,,FEW015,0.00,VWS V14.00,2013-06-08 15:18:00,
2013-06-08 11:23:00,90.7,71.8,29.85,SW,221,0.0,5.8,54,0.00,,FEW015,0.00,VWS V14.00,2013-06-08 15:23:00,
2013-06-08 11:28:00,91.4,72.4,29.85,SW,224,4.0,5.8,54,0.00,,FEW015,0.00,VWS V14.00,2013-06-08 15:28:00,
2013-06-08 11:33:00,90.3,71.4,29.85,SW,220,2.2,5.4,54,0.00,,FEW015,0.00,VWS V14.00,2013-06-08 15:33:00,
2013-06-08 11:38:00,89.6,70.8,29.85,SSW,209,3.6,5.4,54,0.00,,FEW015,0.00,VWS V14.00,2013-06-08 15:38:00,
2013-06-08 11:43:00,89.2,72.5,29.85,SSW,198,3.1,5.8,58,0.00,,FEW015,0.00,VWS V14.00,2013-06-08 15:43:00,
2013-06-08 11:48:00,90.3,71.4,29.85,SSE,164,4.0,5.8,54,0.00,,FEW015,0.00,VWS V14.00,2013-06-08 15:48:00,
2013-06-08 11:53:00,93.0,73.9,29.85,SSE,165,3.6,5.8,54,0.00,,FEW015,0.00,VWS V14.00,2013-06-08 15:53:00,
2013-06-08 11:58:00,92.5,73.4,29.85,WNW,293,4.0,5.8,54,0.00,,FEW015,0.00,VWS V14.00,2013-06-08 15:58:00,
2013-06-08 12:04:00,91.8,72.8,29.85,WNW,293,2.2,6.3,54,0.00,,BKN041,0.00,VWS V14.00,2013-06-08 16:04:00,
2013-06-08 12:09:00,93.6,72.1,29.85,WNW,290,4.0,6.3,50,0.00,,BKN041,0.00,VWS V14.00,2013-06-08 16:09:00,
2013-06-08 12:14:00,92.8,73.8,29.85,WSW,253,4.0,6.3,54,0.00,,BKN041,0.00,VWS V14.00,2013-06-08 16:14:00,
2013-06-08 12:19:00,91.9,72.9,29.85,NNW,329,0.0,6.3,54,0.00,,BKN041,0.00,VWS V14.00,2013-06-08 16:19:00,
2013-06-08 12:24:00,91.8,72.8,29.85,ESE,123,4.9,6.3,54,0.00,,BKN041,0.00,VWS V14.00,2013-06-08 16:24:00,
2013-06-08 12:29:00,92.1,73.1,29.85,SSW,208,0.0,7.6,54,0.00,,BKN041,0.00,VWS V14.00,2013-06-08 16:29:00,
2013-06-08 12:34:00,92.5,73.4,29.85,SSW,200,3.6,4.0,54,0.00,,BKN041,0.00,VWS V14.00,2013-06-08 16:34:00,
2013-06-08 12:39:00,92.8,73.8,29.85,WSW,250,4.0,5.8,54,0.00,,BKN041,0.00,VWS V14.00,2013-06-08 16:39:00,
2013-06-08 12:44:00,91.6,72.6,29.85,WSW,248,2.7,5.8,54,0.00,,BKN041,0.00,VWS V14.00,2013-06-08 16:44:00,
2013-06-08 12:49:00,91.6,72.6,29.85,South,169,3.1,5.8,54,0.00,,BKN041,0.00,VWS V14.00,2013-06-08 16:49:00,
2013-06-08 12:54:00,91.4,72.4,29.85,SSW,213,3.6,5.8,54,0.00,,BKN041,0.00,VWS V14.00,2013-06-08 16:54:00,
2013-06-08 12:59:00,90.7,71.8,29.85,SW,221,3.1,5.8,54,0.00,,BKN041,0.00,VWS V14.00,2013-06-08 16:59:00,
2013-06-08 13:04:00,90.7,71.8,29.85,SSW,194,3.6,5.4,54,0.00,,OVC060,0.00,VWS V14.00,2013-06-08 17:04:00,
2013-06-08 13:09:00,91.2,72.3,29.85,ESE,119,6.3,6.3,54,0.00,,OVC060,0.00,VWS V14.00,2013-06-08 17:09:00,
2013-06-08 13:14:00,91.8,72.8,29.85,ESE,115,2.7,7.6,54,0.00,,OVC060,0.00,VWS V14.00,2013-06-08 17:14:00,
2013-06-08 13:20:00,93.2,71.8,29.82,ENE,65,0.0,7.6,50,0.00,,OVC060,0.00,VWS V14.00,2013-06-08 17:20:00,
2013-06-08 13:25:00,94.6,73.1,29.82,South,172,2.2,7.6,50,0.00,,OVC060,0.00,VWS V14.00,2013-06-08 17:25:00,
2013-06-08 13:30:00,95.4,73.8,29.82,NE,41,3.6,7.6,50,0.00,,OVC060,0.00,VWS V14.00,2013-06-08 17:30:00,
2013-06-08 13:35:00,94.3,72.8,29.82,ESE,106,0.0,4.9,50,0.00,,OVC060,0.00,VWS V14.00,2013-06-08 17:35:00,
2013-06-08 13:40:00,94.8,73.3,29.82,East,99,4.0,5.8,50,0.00,,OVC060,0.00,VWS V14.00,2013-06-08 17:40:00,
2013-06-08 13:45:00,96.3,74.6,29.82,SE,144,4.0,8.3,50,0.00,,OVC060,0.00,VWS V14.00,2013-06-08 17:45:00,
2013-06-08 13:50:00,97.7,75.9,29.82,ENE,77,5.8,8.7,50,0.00,,OVC060,0.00,VWS V14.00,2013-06-08 17:50:00,
2013-06-08 13:55:00,99.0,74.6,29.82,NE,41,4.0,11.0,46,0.00,,OVC060,0.00,VWS V14.00,2013-06-08 17:55:00,
2013-06-08 14:00:00,99.1,74.7,29.82,ENE,59,3.6,4.0,46,0.00,,OVC060,0.00,VWS V14.00,2013-06-08 18:00:00,
2013-06-08 14:06:00,98.1,76.3,29.82,ENE,77,8.7,10.1,50,0.00,,SCT018,0.00,VWS V14.00,2013-06-08 18:06:00,
2013-06-08 14:11:00,98.2,76.4,29.82,ESE,112,5.8,10.5,50,0.00,,SCT018,0.00,VWS V14.00,2013-06-08 18:11:00,
2013-06-08 14:16:00,97.9,76.1,29.82,ESE,104,9.6,13.2,50,0.00,,SCT018,0.00,VWS V14.00,2013-06-08 18:16:00,
2013-06-08 14:21:00,96.8,75.1,29.82,East,83,8.1,13.2,50,0.00,,SCT018,0.00,VWS V14.00,2013-06-08 18:21:00,
2013-06-08 14:26:00,97.0,75.3,29.82,SE,135,5.8,13.2,50,0.00,,SCT018,0.00,VWS V14.00,2013-06-08 18:26:00,
2013-06-08 14:31:00,95.2,73.6,29.82,SE,143,11.0,12.8,50,0.00,,SCT018,0.00,VWS V14.00,2013-06-08 18:31:00,
2013-06-08 14:36:00,92.8,73.8,29.82,ESE,120,8.1,13.6,54,0.00,,SCT018,0.00,VWS V14.00,2013-06-08 18:36:00,
2013-06-08 14:41:00,93.2,71.8,29.82,SE,129,11.0,15.0,50,0.00,,SCT018,0.00,VWS V14.00,2013-06-08 18:41:00,
2013-06-08 14:46:00,92.8,73.8,29.79,ESE,106,5.8,15.0,54,0.00,,SCT018,0.00,VWS V14.00,2013-06-08 18:46:00,
2013-06-08 14:51:00,92.3,73.3,29.79,SSE,151,5.4,15.0,54,0.00,,SCT018,0.00,VWS V14.00,2013-06-08 18:51:00,
2013-06-08 14:56:00,90.7,71.8,29.79,SE,126,5.4,15.0,54,0.00,,SCT018,0.00,VWS V14.00,2013-06-08 18:56:00,
2013-06-08 15:02:00,90.7,71.8,29.82,SSE,153,8.1,10.5,54,0.00,,SCT046,0.00,VWS V14.00,2013-06-08 19:02:00,
2013-06-08 15:07:00,93.2,71.8,29.82,SE,146,8.7,11.0,50,0.00,,SCT046,0.00,VWS V14.00,2013-06-08 19:07:00,
2013-06-08 15:12:00,93.6,72.1,29.82,SSW,197,8.1,11.4,50,0.00,,SCT046,0.00,VWS V14.00,2013-06-08 19:12:00,
2013-06-08 15:17:00,92.8,73.8,29.79,SE,130,5.8,11.4,54,0.00,,SCT046,0.00,VWS V14.00,2013-06-08 19:17:00,
2013-06-08 15:22:00,93.7,72.3,29.79,ESE,120,6.3,11.4,50,0.00,,SCT046,0.00,VWS V14.00,2013-06-08 19:22:00,
2013-06-08 15:27:00,93.4,72.0,29.79,SSE,167,5.8,11.9,50,0.00,,SCT046,0.00,VWS V14.00,2013-06-08 19:27:00,
2013-06-08 15:32:00,92.1,73.1,29.79,SE,144,8.3,8.7,54,0.00,,SCT046,0.00,VWS V14.00,2013-06-08 19:32:00,
2013-06-08 15:37:00,89.8,70.9,29.79,East,97,7.6,8.7,54,0.00,,SCT046,0.00,VWS V14.00,2013-06-08 19:37:00,
2013-06-08 15:42:00,88.0,71.4,29.79,South,178,6.3,11.0,58,0.00,,SCT046,0.00,VWS V14.00,2013-06-08 19:42:00,